Weather History for KMGN - September, 2013

Change the Weather History Date:

Sunday, September 22, 2013

  Actual Average Record
Temperature  
Mean Temperature 48 °F -  
Max Temperature 54 °F - - ()
Min Temperature 41 °F - - ()
Degree Days  
Heating Degree Days 17    
Moisture  
Dew Point 41 °F    
Average Humidity 76    
Maximum Humidity 91    
Minimum Humidity 58    
Precipitation  
Precipitation 0.00 in - - ()
Sea Level Pressure  
Sea Level Pressure 30.03 in    
Wind  
Wind Speed 2 mph (North)    
Max Wind Speed 9 mph    
Max Gust Speed -    
Visibility 10 miles    
Events      
T = Trace of Precipitation, MM = Missing Value Source: NWS Daily Summary

Daily Weather History Graph

Daily Weather History Graph

Search for Another Location

Airport or City:

Trip Planner

Search our weather history database for the weather conditions in past years. The results will help you decide how hot, cold, wet, or windy it might be!

Date:

Astronomy

Sep. 22, 2013 Rise Set
Actual Time 7:26 AM EDT 7:36 PM EDT
Civil Twilight 6:57 AM EDT 8:06 PM EDT
Nautical Twilight 6:22 AM EDT 8:40 PM EDT
Astronomical Twilight 5:47 AM EDT 9:16 PM EDT
Moon 9:14 PM EDT (9/22) 10:57 AM EDT (9/22)
Length of Visible Light 13h 08m
Length of Day
12h 09m
Waning Gibbous, 89% of the Moon is Illuminated
Sep 22
Waning Gibbous
Sep 26
Last Quarter
Oct 4
New
Oct 11
First Quarter
Oct 18
Full

Hourly Weather History & Observations

Time (EDT) Temp. Windchill Dew Point Humidity Pressure Visibility Wind Dir Wind Speed Gust Speed Precip Events Conditions
12:14 AM 50.0 °F - 43.3 °F 78% 29.91 in 10.0 mi Calm Calm - N/A   Overcast
12:35 AM 50.0 °F - 43.5 °F 78% 29.91 in 10.0 mi Calm Calm - N/A   Overcast
12:55 AM 50.0 °F - 43.2 °F 77% 29.91 in 10.0 mi NW 3.5 mph - N/A   Overcast
1:14 AM 47.3 °F - 41.0 °F 79% 29.92 in 10.0 mi Calm Calm - N/A   Scattered Clouds
1:35 AM 47.3 °F - 41.2 °F 79% 29.92 in 10.0 mi Calm Calm - N/A   Scattered Clouds
1:55 AM 45.0 °F - 40.3 °F 84% 29.93 in 10.0 mi Calm Calm - N/A   Mostly Cloudy
2:14 AM 44.6 °F - 41.2 °F 88% 29.93 in 10.0 mi Calm Calm - N/A   Mostly Cloudy
2:35 AM 46.0 °F 44.8 °F 41.4 °F 84% 29.94 in 10.0 mi North 3.5 mph - N/A   Overcast
2:55 AM 45.0 °F 43.5 °F 40.8 °F 85% 29.94 in 10.0 mi North 3.5 mph - N/A   Overcast
3:14 AM 43.9 °F 42.3 °F 40.1 °F 87% 29.94 in 10.0 mi North 3.5 mph - N/A   Scattered Clouds
3:35 AM 43.9 °F 42.3 °F 40.8 °F 89% 29.95 in 10.0 mi North 3.5 mph - N/A   Mostly Cloudy
3:54 AM 44.4 °F - 41.2 °F 88% 29.95 in 10.0 mi Calm Calm - N/A   Overcast
4:14 AM 43.7 °F 42.1 °F 40.8 °F 90% 29.96 in 10.0 mi North 3.5 mph - N/A   Overcast
4:35 AM 44.8 °F - 41.7 °F 89% 29.96 in 10.0 mi Calm Calm - N/A   Overcast
4:54 AM 44.8 °F - 41.4 °F 88% 29.97 in 10.0 mi Calm Calm - N/A   Overcast
5:14 AM 43.7 °F 42.1 °F 40.8 °F 90% 29.97 in 10.0 mi NNE 3.5 mph - N/A   Mostly Cloudy
5:35 AM 44.2 °F - 39.7 °F 84% 29.98 in 10.0 mi Calm Calm - N/A   Overcast
5:54 AM 44.8 °F - 39.6 °F 82% 29.99 in 10.0 mi Calm Calm - N/A   Overcast
6:14 AM 44.6 °F 43.1 °F 39.2 °F 81% 29.99 in 10.0 mi NNE 3.5 mph - N/A   Overcast
6:35 AM 44.2 °F - 39.2 °F 82% 29.99 in 10.0 mi Calm Calm - N/A   Overcast
6:54 AM 44.1 °F - 38.5 °F 81% 30.00 in 10.0 mi Calm Calm - N/A   Overcast
7:15 AM 43.9 °F - 38.3 °F 81% 30.01 in 10.0 mi Calm Calm - N/A   Overcast
7:35 AM 43.9 °F - 38.8 °F 82% 30.01 in 10.0 mi Calm Calm - N/A   Overcast
7:54 AM 44.1 °F - 39.4 °F 84% 30.02 in 10.0 mi Calm Calm - N/A   Overcast
8:15 AM 44.8 °F - 39.2 °F 81% 30.02 in 10.0 mi Calm Calm - N/A   Overcast
8:35 AM 47.5 °F - 39.6 °F 74% 30.02 in 10.0 mi NNE 9.2 mph - N/A   Overcast
8:54 AM 50.0 °F - 40.1 °F 69% 30.03 in 10.0 mi North 3.5 mph - N/A   Mostly Cloudy
9:15 AM 49.8 °F - 40.3 °F 70% 30.03 in 10.0 mi NNW 4.6 mph - N/A   Scattered Clouds
9:35 AM 49.6 °F - 40.3 °F 70% 30.04 in 10.0 mi North 5.8 mph - N/A   Clear
9:54 AM 48.7 °F - 39.7 °F 71% 30.05 in 10.0 mi North 8.1 mph - N/A   Scattered Clouds
10:15 AM 50.0 °F - 41.0 °F 71% 30.06 in 10.0 mi NE 4.6 mph - N/A   Scattered Clouds
10:35 AM 50.5 °F - 40.8 °F 69% 30.06 in 10.0 mi NNW 4.6 mph - N/A   Scattered Clouds
10:54 AM 50.0 °F - 39.2 °F 66% 30.07 in 10.0 mi NNE 3.5 mph - N/A   Mostly Cloudy
11:15 AM 50.0 °F - 39.4 °F 67% 30.07 in 10.0 mi North 3.5 mph - N/A   Overcast
11:35 AM 50.0 °F - 40.3 °F 69% 30.07 in 10.0 mi NNW 5.8 mph - N/A   Overcast
11:54 AM 50.0 °F - 40.1 °F 69% 30.07 in 10.0 mi Calm Calm - N/A   Overcast
12:15 PM 50.0 °F - 39.4 °F 67% 30.07 in 10.0 mi North 3.5 mph - N/A   Overcast
12:35 PM 52.3 °F - 39.0 °F 61% 30.07 in 10.0 mi NNE 6.9 mph - N/A   Overcast
12:54 PM 52.3 °F - 38.5 °F 59% 30.07 in 10.0 mi NNE 4.6 mph - N/A   Overcast
1:15 PM 54.7 °F - 40.3 °F 58% 30.07 in 10.0 mi NE 4.6 mph - N/A   Overcast
1:35 PM 52.3 °F - 39.7 °F 62% 30.07 in 10.0 mi NNW 6.9 mph - N/A   Overcast
1:54 PM 52.5 °F - 40.1 °F 63% 30.07 in 10.0 mi NNW 4.6 mph - N/A   Overcast
2:15 PM 54.9 °F - 42.1 °F 62% 30.07 in 10.0 mi West 3.5 mph - N/A   Overcast
2:34 PM 54.5 °F - 41.7 °F 62% 30.06 in 10.0 mi North 3.5 mph - N/A   Overcast
2:54 PM 52.5 °F - 41.4 °F 66% 30.06 in 10.0 mi North 5.8 mph - N/A   Overcast
3:15 PM 52.3 °F - 41.7 °F 67% 30.06 in 10.0 mi North 5.8 mph - N/A   Overcast
3:34 PM 52.3 °F - 42.3 °F 69% 30.06 in 10.0 mi North 3.5 mph - N/A   Overcast
3:54 PM 52.3 °F - 41.7 °F 67% 30.06 in 10.0 mi North 3.5 mph - N/A   Overcast
4:15 PM 52.3 °F - 42.6 °F 69% 30.06 in 10.0 mi North 5.8 mph - N/A   Overcast
4:34 PM 52.3 °F - 42.3 °F 69% 30.06 in 10.0 mi NNE 4.6 mph - N/A   Overcast
4:54 PM 52.3 °F - 41.9 °F 68% 30.06 in 10.0 mi Calm Calm - N/A   Overcast
5:15 PM 52.5 °F - 42.6 °F 69% 30.06 in 10.0 mi NW 4.6 mph - N/A   Overcast
5:34 PM 52.3 °F - 42.4 °F 69% 30.06 in 10.0 mi NW 3.5 mph - N/A   Overcast
5:54 PM 52.3 °F - 43.0 °F 70% 30.06 in 10.0 mi NW 3.5 mph - N/A   Overcast
6:15 PM 52.3 °F - 42.6 °F 69% 30.07 in 10.0 mi North 4.6 mph - N/A   Overcast
6:34 PM 52.3 °F - 42.8 °F 70% 30.07 in 10.0 mi North 4.6 mph - N/A   Overcast
6:55 PM 51.1 °F - 42.8 °F 73% 30.07 in 10.0 mi North 4.6 mph - N/A   Overcast
7:15 PM 50.9 °F - 42.6 °F 73% 30.07 in 10.0 mi NNW 5.8 mph - N/A   Overcast
7:34 PM 50.2 °F - 42.1 °F 74% 30.07 in 10.0 mi Calm Calm - N/A   Overcast
7:54 PM 50.0 °F - 42.8 °F 76% 30.07 in 10.0 mi Calm Calm - N/A   Overcast
8:15 PM 50.0 °F - 43.9 °F 79% 30.08 in 10.0 mi Calm Calm - N/A   Overcast
8:34 PM 50.0 °F - 43.7 °F 79% 30.08 in 10.0 mi NW 3.5 mph - N/A   Overcast
8:55 PM 50.0 °F - 43.5 °F 78% 30.09 in 10.0 mi NW 3.5 mph - N/A   Overcast
9:15 PM 50.0 °F - 43.3 °F 78% 30.09 in 10.0 mi Calm Calm - N/A   Mostly Cloudy
9:34 PM 47.3 °F - 42.1 °F 82% 30.10 in 10.0 mi NW 4.6 mph - N/A   Clear
9:55 PM 44.6 °F 42.2 °F 40.3 °F 85% 30.11 in 10.0 mi NNW 4.6 mph - N/A   Clear
10:15 PM 44.1 °F 40.8 °F 41.2 °F 90% 30.11 in 10.0 mi North 5.8 mph - N/A   Clear
10:34 PM 43.7 °F 41.1 °F 41.0 °F 90% 30.11 in 10.0 mi North 4.6 mph - N/A   Clear
10:55 PM 43.2 °F - 40.5 °F 90% 30.11 in 10.0 mi Calm Calm - N/A   Clear
11:15 PM 42.3 °F 40.5 °F 39.7 °F 91% 30.11 in 10.0 mi North 3.5 mph - N/A   Clear
11:34 PM 42.3 °F - 39.6 °F 90% 30.11 in 10.0 mi Calm Calm - N/A   Clear
11:55 PM 41.0 °F - 38.7 °F 91% 30.12 in 10.0 mi Calm Calm - N/A   Clear